2021-006EM (47686 NORAD) Tracking and Keplerian Element Data

This shows tracking and keplerian element data for the satellite.

Feedback or suggestion? Click here.




ElementValue
Catalog47686
Name2021-006EM
Epoch Orbit473
Epoch Day53.91416448
Epoch Year2021
RAAN117.1114
Inclination97.5096
Eccentricity0.0013403
Argument of Perigee136.9096
Mean Anonmoly223.3186
Mean Motion15.12505335
Decay Rate9.35E-06
L11 47686U 21006EM 21053.91416448 .00000935 00000-0 57300-4 0 9994
L22 47686 97.5096 117.1114 0013403 136.9096 223.3186 15.12505335 4739

Live tracking and technical data element details for 2021-006EM (NORAD 47686). 2021-006EM can be tracked NOW for your location showing map with azimuth and elevation plus other details from your city location.

Track the satellite on the map from your city or location and see movement details for azimuth, elevation, latitude, longitude, range, height, and movement on the map or in text.







IsCatalogInMostPopularTable: catalog: 47686, numindb: 1
Update: records affected: 1



GetName: 47686 2021-006EM

Hit Count: updated at: Fri, 26 Feb 2021 10:11:32 GMT